Overview Statistics Trail Chart Weather Telemetry Raw packets
 

This is the latest recevied weather packets stored in our database for station/object WW5JC. If no packets are shown the sender has not sent any weather packets the latest 10 day(s).

<< 73 74 75 76 77 78 79 >>
Time Temp. Humidity Pressure Rain* Wind** Luminosity Snow
1788102614 30° C 64% 1019.3 hPa 0 mm - 384 W/m² -
1788102313 29.44° C 66% 1019.1 hPa 0 mm - 296 W/m² -
1788102009 28.89° C 66% 1019.2 hPa 0 mm - 224 W/m² -
1788101707 28.33° C 67% 1019.2 hPa 0 mm - 110 W/m² -
1788101403 28.89° C 66% 1019.5 hPa 0 mm - 106 W/m² -
1788101099 28.89° C 66% 1019.4 hPa 0 mm - 311 W/m² -
1788100794 28.89° C 66% 1019.2 hPa 0 mm - 284 W/m² -
1788100490 28.89° C 66% 1019.3 hPa 0 mm - 285 W/m² -
1788100198 28.33° C 66% 1019.2 hPa 0 mm - 273 W/m² -
1788099883 28.33° C 66% 1019.4 hPa 0 mm - 263 W/m² -
1788099578 27.78° C 69% 1019.5 hPa 0 mm - 267 W/m² -
1788099273 27.78° C 69% 1019.6 hPa 0 mm - 237 W/m² -
1788098968 26.67° C 71% 1019.5 hPa 0 mm - 242 W/m² -
1788098664 26.11° C 74% 1019.6 hPa 0 mm - 110 W/m² -
1788098362 26.11° C 74% 1019.4 hPa 0 mm - 107 W/m² -
1788098058 25.56° C 74% 1019.6 hPa 0 mm - 178 W/m² -
1788097754 25.56° C 75% 1019.3 hPa 0 mm - 102 W/m² -
1788097449 25.56° C 75% 1019.4 hPa 0 mm - 105 W/m² -
1788097145 25.56° C 75% 1019.5 hPa 0 mm - 105 W/m² -
1788096841 25° C 77% 1019.4 hPa 0 mm - 108 W/m² -
1788096535 25.56° C 76% 1019.2 hPa 0 mm - 104 W/m² -
1788096231 25° C 76% 1019.2 hPa 0 mm - 137 W/m² -
1788095930 25° C 77% 1019.2 hPa 0 mm - 120 W/m² -
1788095630 23.89° C 79% 1019.2 hPa 0 mm - 99 W/m² -
1788095325 23.89° C 81% 1019.1 hPa 0 mm - 72 W/m² -

* Rain latest hour (hover to see other rain measurements)
** Current wind speed in m/s (hover to see current wind gust speed)